[[{"header":{"parameterUnit":"m.s-1","parameterCategory":1,"la1":30.2991,"la2":30.254,"lo1":-89.0895,"lo2":-89.0444,"dy":0.0017,"dx":0.0017,"nx":28,"ny":28,"refTime":"2024-12-26T03:00:00:Z","depth":0,"parameterNumber":2,"parameterNumberName":"U-component_of_WINDS"},"data":[0,0,0,0,0,0,0,0,0,0,0,0,0,0,0,0,0,0,0,0,0,0,0,0,0,0,0,0,0,0,0,0,0,0,0,0,0,0,0,0,0,0,0,0,0,0,0,0,0,0,0,0,0,0,0,0,0,0,-1.166,-1.166,0,-1.1692,-1.1692,-1.1692,-1.1712,-1.1712,-1.1712,-1.1713,-1.1744,-1.1745,-1.1745,0,0,0,0,0,0,0,0,0,0,0,0,0,-1.1612,-1.1613,-1.166,-1.166,-1.166,-1.1692,-1.1692,-1.1693,-1.1712,-1.1712,-1.1712,-1.1713,-1.1744,-1.1744,-1.1745,0,0,0,0,0,0,0,0,0,0,0,0,0,-1.1637,-1.1613,-1.1659,-1.1674,-1.1676,-1.1692,-1.1692,-1.1693,-1.1712,-1.1712,-1.1713,-1.1713,-1.1743,-1.1744,-1.1745,-1.1749,0,0,-1.1749,-1.1749,0,0,0,0,0,0,0,0,-1.1636,-1.1639,-1.1671,-1.1673,-1.1675,-1.1698,-1.1687,-1.1712,-1.1712,-1.1698,-1.1713,-1.1713,-1.1728,-1.1731,-1.1736,-1.1751,-1.1752,-1.1749,-1.175,-1.175,-1.175,0,0,0,0,0,0,0,-1.1634,-1.1638,-1.1672,-1.1672,-1.1674,-1.1678,-1.1682,-1.1692,-1.1712,-1.1699,-1.1701,-1.1705,-1.1729,-1.1735,-1.1737,-1.1752,-1.1749,-1.175,-1.1751,-1.1751,-1.177,-1.1769,0,0,0,0,0,0,-1.1631,-1.1636,-1.1671,-1.1673,-1.1655,-1.1679,-1.1683,-1.169,-1.1712,-1.1715,-1.1704,-1.1705,-1.1733,-1.1736,-1.1738,-1.1743,-1.175,-1.1751,-1.1752,-1.177,-1.1769,-1.1769,0,0,0,0,0,0,-1.1629,-1.1633,-1.167,-1.1655,-1.166,-1.1679,-1.1688,-1.1691,-1.1697,-1.1716,-1.1719,-1.1707,-1.1734,-1.1737,-1.1746,-1.1745,-1.1752,-1.1753,-1.177,-1.177,-1.1769,-1.1753,0,0,0,0,0,0,-1.1628,-1.1633,-1.1635,-1.1655,-1.1661,-1.1678,-1.1688,-1.1692,-1.1699,-1.1701,-1.1719,-1.1722,-1.1734,-1.1744,-1.1747,-1.1746,-1.1753,-1.177,-1.177,-1.1769,-1.1754,-1.1753,-1.1751,0,0,0,0,0,-1.1626,-1.1629,-1.1635,-1.1639,-1.1664,-1.1678,-1.1681,-1.1695,-1.1699,-1.1701,-1.1713,-1.1722,-1.1744,-1.1745,-1.1748,-1.1748,-1.177,-1.177,-1.1769,-1.1755,-1.1753,-1.1751,0,0,0,0,0,0,-1.1609,-1.1632,-1.1639,-1.1649,-1.1661,-1.1681,-1.1684,-1.1693,-1.1704,-1.1705,-1.1721,-1.1725,-1.1732,-1.1741,-1.1741,-1.1752,-1.1758,-1.1758,-1.1746,-1.1744,-1.1743,-1.174,-1.1754,0,0,0,0,0,-1.1606,-1.1616,-1.1636,-1.1642,-1.1648,-1.1665,-1.1671,-1.1681,-1.1694,-1.1699,-1.1712,-1.1723,-1.1733,-1.1739,-1.1749,-1.1755,-1.1759,-1.1756,-1.1755,-1.1754,-1.1754,-1.1756,-1.1755,-1.1768,-1.1768,-1.1768,0,0,-1.1601,-1.1615,-1.162,-1.1639,-1.165,-1.1658,-1.1669,-1.1678,-1.1684,-1.17,-1.171,-1.1719,-1.1733,-1.1741,-1.1744,-1.1748,-1.1751,-1.1753,-1.1752,-1.1753,-1.1756,-1.1755,-1.1753,-1.1768,-1.1768,-1.1768,0,0,-1.1595,-1.1607,-1.1614,-1.1624,-1.164,-1.1651,-1.1652,-1.167,-1.1677,-1.1687,-1.1698,-1.1706,-1.1722,-1.1732,-1.1738,-1.1735,-1.1743,-1.1737,-1.173,-1.1732,-1.1731,-1.173,-1.1728,-1.1727,-1.1737,-1.1737,-1.1737,0,-1.1587,-1.1601,-1.1616,-1.1624,-1.1631,-1.1646,-1.1652,-1.1661,-1.1679,-1.1683,-1.1687,-1.1708,-1.1718,-1.1727,-1.1726,-1.1732,-1.1733,-1.1735,-1.173,-1.173,-1.1729,-1.1727,-1.1726,-1.1736,-1.1736,-1.1737,-1.1737,0,-1.1589,-1.1598,-1.1601,-1.1618,-1.1626,-1.1633,-1.1648,-1.1654,-1.1662,-1.1672,-1.1681,-1.1694,-1.1707,-1.1709,-1.1718,-1.1719,-1.1721,-1.1727,-1.1734,-1.1727,-1.1725,-1.1724,-1.1735,-1.1736,-1.1736,-1.1736,0,0,-1.1574,-1.1598,-1.1599,-1.1607,-1.1624,-1.1632,-1.1638,-1.1651,-1.1655,-1.1666,-1.1672,-1.1685,-1.169,-1.1698,-1.1708,-1.171,-1.1704,-1.1716,-1.1716,-1.1712,-1.1705,-1.17,-1.1699,-1.171,-1.171,-1.171,-1.1704,0,-1.1571,-1.1585,-1.1598,-1.1606,-1.1614,-1.1628,-1.1633,-1.1644,-1.1653,-1.1661,-1.1671,-1.1679,-1.1687,-1.1691,-1.1694,-1.1704,-1.1703,-1.1705,-1.1714,-1.1714,-1.171,-1.1698,-1.1693,-1.1687,-1.1703,-1.1703,-1.1703,0,-1.157,-1.158,-1.159,-1.1605,-1.1609,-1.1614,-1.1626,-1.1633,-1.1645,-1.1651,-1.1659,-1.1669,-1.1675,-1.1681,-1.169,-1.1691,-1.1695,-1.1701,-1.1701,-1.1702,-1.1708,-1.1699,-1.1686,-1.1684,-1.1703,-1.1703,-1.1703,0,-1.1557,-1.1574,-1.1581,-1.1587,-1.1606,-1.1609,-1.1616,-1.1629,-1.1635,-1.1644,-1.1648,-1.1658,-1.1664,-1.1671,-1.1683,-1.1686,-1.169,-1.1697,-1.1694,-1.1694,-1.1694,-1.1694,-1.1681,-1.1698,-1.1698,-1.1698,-1.1698,0,-1.1552,-1.1557,-1.1576,-1.1581,-1.1586,-1.16,-1.1605,-1.1613,-1.1624,-1.1629,-1.1641,-1.1646,-1.1662,-1.1668,-1.1677,-1.1682,-1.1685,-1.1689,-1.1692,-1.1688,-1.1687,-1.1691,-1.1691,-1.1698,-1.1698,-1.1698,-1.1698,0,-1.154,-1.1553,-1.1561,-1.1578,-1.1582,-1.1585,-1.1598,-1.1603,-1.1612,-1.1619,-1.1621,-1.1636,-1.1644,-1.1656,-1.1668,-1.1674,-1.1677,-1.1681,-1.1673,-1.1674,-1.1671,-1.1671,-1.166,-1.1658,-1.1676,-1.1676,-1.1676,0,-1.1536,-1.154,-1.1556,-1.1561,-1.1568,-1.1576,-1.1582,-1.1595,-1.16,-1.1613,-1.1616,-1.1624,-1.1632,-1.1644,-1.1655,-1.1664,-1.1668,-1.1663,-1.1669,-1.1665,-1.1667,-1.1666,-1.1666,-1.1662,-1.1662,-1.1661,-1.1661,0,-1.1527,-1.1533,-1.1541,-1.1551,-1.1558,-1.1566,-1.1575,-1.1578,-1.1593,-1.1598,-1.1607,-1.1613,-1.1624,-1.1632,-1.1642,-1.1649,-1.1657,-1.1659,-1.1659,-1.1655,-1.165,-1.1652,-1.1669,-1.1659,-1.166,-1.166,-1.166,-1.166,-1.1518,-1.1522,-1.1534,-1.1542,-1.155,-1.1557,-1.1562,-1.1571,-1.1578,-1.1589,-1.1596,-1.1603,-1.1614,-1.1628,-1.1634,-1.1639,-1.1643,-1.1643,-1.1643,-1.1642,-1.1641,-1.1649,-1.1641,-1.1641,-1.1642,-1.1642,-1.1642,0,-1.151,-1.1517,-1.1525,-1.1536,-1.1542,-1.155,-1.1559,-1.1564,-1.157,-1.1579,-1.1586,-1.1595,-1.1602,-1.1614,-1.1622,-1.1624,-1.1628,-1.1625,-1.1625,-1.1626,-1.1637,-1.1636,-1.1622,-1.1622,-1.1622,-1.1622,-1.1622,-1.1622,-1.1506,-1.1512,-1.1518,-1.1528,-1.1535,-1.1543,-1.1547,-1.1554,-1.1561,-1.157,-1.1576,-1.1584,-1.1593,-1.1602,-1.1608,-1.1611,-1.1613,-1.161,-1.1614,-1.1624,-1.1626,-1.1628,-1.1627,-1.1611,-1.1611,-1.1602,-1.1602,-1.1602]},{"header":{"parameterUnit":"m.s-1","parameterCategory":1,"la1":30.2991,"la2":30.254,"lo1":-89.0895,"lo2":-89.0444,"dy":0.0017,"dx":0.0017,"nx":28,"ny":28,"refTime":"2024-12-26T03:00:00:Z","depth":0,"parameterNumber":3,"parameterNumberName":"V-component_of_WINDS"},"data":[0,0,0,0,0,0,0,0,0,0,0,0,0,0,0,0,0,0,0,0,0,0,0,0,0,0,0,0,0,0,0,0,0,0,0,0,0,0,0,0,0,0,0,0,0,0,0,0,0,0,0,0,0,0,0,0,0,0,3.3268,3.327,0,3.3448,3.345,3.3452,3.3515,3.3514,3.3514,3.3513,3.3702,3.3707,3.3713,0,0,0,0,0,0,0,0,0,0,0,0,0,3.2985,3.2989,3.3267,3.327,3.3272,3.3447,3.345,3.3452,3.3515,3.3514,3.3513,3.3513,3.37,3.3706,3.3713,0,0,0,0,0,0,0,0,0,0,0,0,0,3.313,3.2991,3.3267,3.3324,3.3331,3.3447,3.345,3.3453,3.3515,3.3514,3.3513,3.3512,3.3697,3.3706,3.3714,3.3787,0,0,3.374,3.3744,0,0,0,0,0,0,0,0,3.3122,3.3141,3.3314,3.3321,3.3329,3.3458,3.3419,3.3565,3.3516,3.3446,3.3513,3.3512,3.3622,3.3636,3.3672,3.3796,3.3804,3.3741,3.3746,3.375,3.3752,0,0,0,0,0,0,0,3.3112,3.3133,3.3339,3.3316,3.3325,3.3343,3.3363,3.3447,3.3537,3.3452,3.3457,3.3477,3.3625,3.3664,3.3677,3.3807,3.3741,3.3748,3.3753,3.3757,3.4004,3.4006,0,0,0,0,0,0,3.3091,3.3124,3.3333,3.3344,3.322,3.3349,3.3371,3.3417,3.3536,3.3554,3.3477,3.3479,3.365,3.3667,3.3684,3.3781,3.375,3.3757,3.3762,3.4003,3.4005,3.4006,0,0,0,0,0,0,3.3085,3.3109,3.3326,3.3236,3.3265,3.3355,3.3407,3.3421,3.346,3.3556,3.3573,3.35,3.365,3.3672,3.3762,3.3788,3.3761,3.3769,3.4001,3.4003,3.4005,3.3972,0,0,0,0,0,0,3.3077,3.3107,3.3134,3.3236,3.3269,3.3398,3.3408,3.3426,3.3474,3.3478,3.3582,3.3598,3.3651,3.3749,3.377,3.3799,3.3776,3.3999,3.4002,3.4005,3.3971,3.3973,3.3974,0,0,0,0,0,3.3066,3.3117,3.3135,3.3159,3.3305,3.34,3.3419,3.3478,3.3476,3.3505,3.3567,3.3595,3.3781,3.3757,3.3782,3.3814,3.3998,3.4001,3.4004,3.3971,3.3973,3.3974,0,0,0,0,0,0,3.3016,3.3131,3.3152,3.3237,3.3308,3.341,3.3449,3.3477,3.3551,3.3552,3.3623,3.3646,3.3731,3.3781,3.3753,3.3893,3.3891,3.39,3.3857,3.386,3.3861,3.3848,3.3783,0,0,0,0,0,3.3015,3.308,3.3178,3.3244,3.3279,3.3357,3.3401,3.344,3.3517,3.3548,3.3617,3.3692,3.3768,3.3816,3.3891,3.3979,3.4004,3.4013,3.4014,3.4015,3.4022,3.4076,3.4083,3.4017,3.4017,3.4017,0,0,3.3013,3.3084,3.3121,3.3236,3.3296,3.3365,3.3382,3.3454,3.3507,3.3559,3.3649,3.3702,3.3791,3.388,3.3923,3.3925,3.4046,3.4019,3.4019,3.4026,3.408,3.4087,3.4092,3.4019,3.4019,3.4019,0,0,3.3046,3.3104,3.3167,3.3227,3.3317,3.337,3.3385,3.3483,3.3521,3.3611,3.3653,3.3718,3.3846,3.3909,3.3958,3.4017,3.4047,3.404,3.4048,3.41,3.4105,3.411,3.4135,3.4142,3.4046,3.4046,3.4046,0,3.3032,3.3136,3.3196,3.3267,3.3318,3.3368,3.3434,3.3489,3.36,3.3635,3.3635,3.3799,3.3862,3.3969,3.3984,3.4021,3.4043,3.4029,3.4099,3.4105,3.4111,3.4135,3.4143,3.4045,3.4045,3.4045,3.4045,0,3.3118,3.3189,3.323,3.3335,3.339,3.3458,3.3531,3.358,3.3615,3.3668,3.3762,3.384,3.3933,3.3961,3.3995,3.4074,3.4073,3.4085,3.4085,3.4114,3.4139,3.4148,3.4043,3.4044,3.4044,3.4044,0,0,3.3123,3.3262,3.3276,3.3326,3.343,3.3488,3.356,3.365,3.3693,3.3768,3.3832,3.3941,3.3954,3.4009,3.4051,3.4096,3.4143,3.4104,3.4107,3.4111,3.4239,3.4231,3.424,3.4162,3.4164,3.4166,3.4233,0,3.3171,3.33,3.3357,3.3461,3.353,3.358,3.3644,3.3716,3.3768,3.3837,3.3895,3.3972,3.3982,3.4016,3.4063,3.4127,3.417,3.4123,3.4226,3.4229,3.4204,3.4252,3.4243,3.4302,3.4242,3.4244,3.4245,0,3.3244,3.332,3.343,3.3529,3.3561,3.3616,3.3706,3.3769,3.3854,3.3889,3.3952,3.3993,3.4074,3.4067,3.4181,3.4147,3.4193,3.4232,3.4235,3.4249,3.424,3.427,3.4322,3.4332,3.426,3.4258,3.4257,0,3.3241,3.337,3.3454,3.3494,3.3611,3.365,3.3701,3.3784,3.3836,3.3915,3.395,3.4037,3.4086,3.4154,3.4219,3.4207,3.4328,3.4325,3.4362,3.4361,3.4387,3.4385,3.4449,3.4411,3.4411,3.4411,3.4411,0,3.329,3.3356,3.3454,3.3506,3.3583,3.365,3.3725,3.378,3.3854,3.392,3.3968,3.4029,3.411,3.4182,3.4234,3.4322,3.4343,3.4376,3.439,3.4373,3.437,3.4406,3.4405,3.4414,3.4413,3.4413,3.4412,0,3.3299,3.3367,3.3462,3.3566,3.3593,3.3646,3.3736,3.379,3.3845,3.3928,3.3951,3.4039,3.4127,3.4198,3.4312,3.4347,3.4441,3.4455,3.4412,3.442,3.4454,3.4451,3.4546,3.4564,3.4511,3.4511,3.4512,0,3.3327,3.3379,3.3489,3.3536,3.3586,3.3661,3.3715,3.3783,3.3838,3.394,3.3982,3.4073,3.415,3.4288,3.4364,3.4453,3.4471,3.4498,3.4485,3.4468,3.4475,3.4472,3.448,3.45,3.45,3.4501,3.4501,0,3.337,3.3402,3.3476,3.3564,3.3626,3.3699,3.3773,3.3809,3.3892,3.3951,3.4041,3.41,3.4218,3.431,3.4407,3.4463,3.4497,3.4504,3.4518,3.4503,3.4478,3.4496,3.4419,3.4502,3.4502,3.4502,3.4502,3.4502,3.3392,3.3442,3.3528,3.3611,3.3674,3.3742,3.3799,3.3862,3.3938,3.4039,3.4075,3.4169,3.4256,3.439,3.4446,3.4522,3.4526,3.4545,3.455,3.4555,3.4554,3.4464,3.454,3.454,3.454,3.454,3.454,0,3.344,3.3498,3.3574,3.3676,3.3742,3.3767,3.3851,3.3905,3.3987,3.4064,3.4139,3.4245,3.4334,3.4417,3.4512,3.4557,3.4575,3.458,3.4578,3.4591,3.4544,3.4524,3.4563,3.4563,3.4563,3.4563,3.4563,3.4563,3.3473,3.3561,3.3603,3.3725,3.3783,3.3874,3.3921,3.3986,3.4048,3.4164,3.4238,3.4291,3.4373,3.4474,3.4559,3.4581,3.4615,3.4616,3.4643,3.4597,3.4594,3.4591,3.4573,3.4622,3.4622,3.4684,3.4685,3.4685]}]]